EW5186 Weather Reports


time (UTC)temp
C
wind
direction
speed
KPH
gust
KPH
rain 1hr
cm
rain 24hr
cm
rain mn
cm
humidity
%
barometer
mb
20260505114505 13 123 0.0 4.8 0.00 0.00 0.00 87 1012.9
20260505113004 12 173 0.0 4.8 0.00 0.00 0.00 86 1013.1
20260505111647 12 134 1.6 4.8 0.00 0.00 0.00 85 1012.7
20260505101530 10 159 0.0 1.6 0.00 0.00 0.00 92 1012.0
20260505100034 10 103 0.0 0.0 0.00 0.00 0.00 92 1011.9
20260505094526 10 160 0.0 0.0 0.00 0.00 0.00 92 1011.9
20260505093026 9 94 0.0 3.2 0.00 0.00 0.00 92 1011.9
20260505091524 10 146 0.0 1.6 0.00 0.00 0.00 91 1011.8
20260505090044 10 74 0.0 1.6 0.00 0.00 0.00 91 1011.7
20260505084504 10 170 0.0 4.8 0.00 0.00 0.00 91 1011.9
20260505083105 10 60 0.0 1.6 0.00 0.00 0.00 90 1012.0
20260505081559 10 150 0.0 0.0 0.00 0.00 0.00 90 1012.0
20260505080051 10 87 0.0 0.0 0.00 0.00 0.00 89 1012.0
20260505074606 10 61 0.0 1.6 0.00 0.00 0.00 89 1012.0
20260505073052 10 128 0.0 1.6 0.00 0.00 0.00 89 1012.0
20260505071547 10 82 0.0 4.8 0.00 0.00 0.00 88 1012.1
20260505070047 10 118 0.0 3.2 0.00 0.00 0.00 87 1012.1
20260505064545 10 114 0.0 4.8 0.00 0.00 0.00 86 1012.3
20260505063044 10 90 0.0 3.2 0.00 0.00 0.00 86 1012.2
20260505061531 10 162 0.0 1.6 0.00 0.00 0.00 87 1012.4
20260505060023 10 116 0.0 0.0 0.00 0.00 0.00 86 1012.4
20260505054519 10 103 0.0 3.2 0.00 0.00 0.00 86 1012.5
20260505053011 10 150 0.0 4.8 0.00 0.00 0.00 87 1012.6
20260505051509 9 145 0.0 0.0 0.00 0.00 0.00 86 1012.7
20260505041602 10 100 0.0 0.0 0.00 0.00 0.00 82 1012.9
20260505040100 10 142 0.0 1.6 0.00 0.00 0.00 82 1013.0
20260505034543 10 91 0.0 1.6 0.00 0.00 0.00 81 1013.0
20260505033048 11 138 0.0 3.2 0.00 0.00 0.00 80 1013.0
20260505031528 11 111 0.0 4.8 0.00 0.00 0.00 79 1013.0
20260505030027 11 115 0.0 3.2 0.00 0.00 0.00 78 1013.0
20260505024549 11 103 0.0 3.2 0.00 0.00 0.00 79 1013.1
20260505023036 11 85 0.0 3.2 0.00 0.00 0.00 79 1013.0
20260505021542 11 151 0.0 1.6 0.00 0.00 0.00 79 1013.1
20260505020025 11 121 0.0 1.6 0.00 0.00 0.00 79 1013.0
20260505014527 11 138 0.0 4.8 0.00 0.00 0.00 77 1012.9
20260505013024 12 133 0.0 3.2 0.00 0.00 0.00 77 1012.9
20260505011507 12 120 0.0 8.0 0.00 0.00 0.00 75 1012.8
20260505010006 12 66 0.0 9.7 0.00 0.00 0.00 74 1012.6
20260505004549 12 86 1.6 8.0 0.00 0.00 0.00 72 1012.3
20260505003047 12 72 0.0 8.0 0.00 0.00 0.00 72 1012.3
20260505001531 12 148 0.0 3.2 0.00 0.00 0.00 71 1012.0
20260505000029 13 143 0.0 8.0 0.00 0.00 0.00 69 1011.8
20260504234511 13 129 0.0 4.8 0.00 0.00 0.00 67 1011.6
20260504233009 15 198 1.6 14.5 0.00 0.00 0.00 64 1011.4
20260504231552 15 79 1.6 8.0 0.00 0.00 0.00 62 1011.3
20260504230051 16 34 0.0 8.0 0.00 0.00 0.00 60 1011.2
20260504224534 16 242 0.0 11.3 0.00 0.00 0.00 58 1011.1
20260504223134 17 223 0.0 12.9 0.00 0.00 0.00 56 1011.1
20260504221514 17 140 1.6 12.9 0.00 0.00 0.00 54 1011.1
20260504220020 18 136 4.8 16.1 0.00 0.00 0.00 53 1011.3
20260504214557 18 153 1.6 14.5 0.00 0.00 0.00 53 1011.2
20260504213117 19 138 4.8 22.5 0.00 0.00 0.00 49 1011.1
20260504211537 19 136 4.8 14.5 0.00 0.00 0.00 49 1011.0
20260504210036 19 98 4.8 14.5 0.00 0.00 0.00 49 1011.0
20260504204531 20 87 1.6 12.9 0.00 0.00 0.00 48 1011.0
20260504203026 20 4 1.6 12.9 0.00 0.00 0.00 48 1011.0
20260504201524 20 269 4.8 17.7 0.00 0.00 0.00 48 1011.0
20260504200023 20 323 3.2 16.1 0.00 0.00 0.00 48 1011.0
20260504194523 20 50 0.0 16.1 0.00 0.00 0.00 44 1011.0
20260504193020 20 172 4.8 16.1 0.00 0.00 0.00 46 1011.1
20260504191518 20 328 3.2 20.9 0.00 0.00 0.00 44 1011.1
20260504190019 20 293 3.2 17.7 0.00 0.00 0.00 48 1011.3
20260504184523 20 176 1.6 22.5 0.00 0.00 0.00 43 1011.2
20260504181501 20 223 6.4 20.9 0.00 0.00 0.00 39 1011.5
20260504180100 20 327 4.8 19.3 0.00 0.00 0.00 41 1011.6
20260504174558 20 236 6.4 19.3 0.00 0.00 0.00 40 1011.7
20260504173059 20 116 1.6 17.7 0.00 0.00 0.00 43 1012.1
20260504171556 20 307 6.4 19.3 0.00 0.00 0.00 42 1012.0